This is the latest recevied weather packets stored in our database for station/object KB1FPD. If no packets are shown the sender has not sent any weather packets the latest 10 day(s).
| Time | Temp. | Humidity | Pressure | Rain* | Wind** | Luminosity | Snow |
|---|---|---|---|---|---|---|---|
| 1777938255 | 20° C | 50% | 1009.6 hPa | 0 mm | - | - | - |
| 1777937961 | 20° C | 50% | 1009.6 hPa | 0 mm | - | - | - |
| 1777937658 | 20° C | 50% | 1009.6 hPa | 0 mm | - | - | - |
| 1777937353 | 20.56° C | 49% | 1009.5 hPa | 0 mm | - | - | - |
| 1777937057 | 20.56° C | 48% | 1009.6 hPa | 0 mm | - | - | - |
| 1777936753 | 20.56° C | 49% | 1009.5 hPa | 0 mm | - | - | - |
| 1777936454 | 20.56° C | 47% | 1009.5 hPa | 0 mm | - | - | - |
| 1777936158 | 20.56° C | 48% | 1009.5 hPa | 0 mm | - | - | - |
| 1777935853 | 20.56° C | 47% | 1009.6 hPa | 0 mm | - | - | - |
| 1777935553 | 21.11° C | 48% | 1009.5 hPa | 0 mm | - | - | - |
| 1777935261 | 21.11° C | 47% | 1009.5 hPa | 0 mm | - | - | - |
| 1777934953 | 20.56° C | 47% | 1009.6 hPa | 0 mm | - | - | - |
| 1777934657 | 21.11° C | 46% | 1009.6 hPa | 0 mm | - | - | - |
| 1777934356 | 21.11° C | 47% | 1009.6 hPa | 0 mm | - | - | - |
| 1777934052 | 21.11° C | 47% | 1009.6 hPa | 0 mm | - | - | - |
| 1777933751 | 21.11° C | 49% | 1009.5 hPa | 0 mm | - | - | - |
| 1777933455 | 21.11° C | 47% | 1009.7 hPa | 0 mm | - | - | - |
| 1777933150 | 21.11° C | 47% | 1009.7 hPa | 0 mm | - | - | - |
| 1777932856 | 21.67° C | 46% | 1009.6 hPa | 0 mm | - | - | - |
| 1777932551 | 22.22° C | 48% | 1009.7 hPa | 0 mm | - | - | - |
| 1777932253 | 22.22° C | 47% | 1009.6 hPa | 0 mm | - | - | - |
| 1777931952 | 21.67° C | 45% | 1009.5 hPa | 0 mm | - | - | - |
| 1777931653 | 21.67° C | 49% | 1009.4 hPa | 0 mm | - | - | - |
| 1777931351 | 21.67° C | 47% | 1009.6 hPa | 0 mm | - | - | - |
| 1777931053 | 21.67° C | 49% | 1009.5 hPa | 0 mm | - | - | - |
* Rain latest hour (hover to see other rain measurements)
** Current wind speed in m/s (hover to see current wind gust speed)